TimeCST,TemperatureF,Dew PointF,Humidity,Sea Level PressureIn,VisibilityMPH,Wind Direction,Wind SpeedMPH,Gust SpeedMPH,PrecipitationIn,Events,Conditions,WindDirDegrees,DateUTC
12:15 AM,46.4,46.4,100,30.18,5.0,Calm,Calm,-,N/A,,Clear,0,2013-01-29 06:15:00
12:35 AM,44.6,44.6,100,30.18,5.0,Calm,Calm,-,N/A,,Clear,0,2013-01-29 06:35:00
12:55 AM,44.6,44.6,100,30.18,7.0,Calm,Calm,-,N/A,,Clear,0,2013-01-29 06:55:00
1:15 AM,44.6,44.6,100,30.18,0.2,Calm,Calm,-,N/A,Fog,Fog,0,2013-01-29 07:15:00
1:35 AM,46.4,46.4,100,30.17,3.0,Calm,Calm,-,N/A,,Overcast,0,2013-01-29 07:35:00
1:55 AM,48.2,48.2,100,30.17,5.0,Calm,Calm,-,N/A,,Overcast,0,2013-01-29 07:55:00
2:15 AM,48.2,48.2,100,30.16,4.0,Calm,Calm,-,N/A,,Overcast,0,2013-01-29 08:15:00
2:35 AM,46.4,46.4,100,30.15,4.0,Calm,Calm,-,N/A,,Overcast,0,2013-01-29 08:35:00
2:55 AM,46.4,46.4,100,30.14,7.0,Calm,Calm,-,N/A,,Overcast,0,2013-01-29 08:55:00
3:15 AM,46.4,46.4,100,30.14,7.0,Calm,Calm,-,N/A,,Mostly Cloudy,0,2013-01-29 09:15:00
3:35 AM,48.2,48.2,100,30.13,5.0,Calm,Calm,-,N/A,,Mostly Cloudy,0,2013-01-29 09:35:00
3:55 AM,51.8,51.8,100,30.12,7.0,South,6.9,-,N/A,,Overcast,180,2013-01-29 09:55:00
4:15 AM,55.4,55.4,100,30.11,7.0,South,9.2,-,N/A,,Overcast,180,2013-01-29 10:15:00
4:35 AM,57.2,55.4,94,30.11,7.0,South,10.4,-,N/A,,Overcast,190,2013-01-29 10:35:00
4:55 AM,57.2,57.2,100,30.10,7.0,South,9.2,-,N/A,,Overcast,180,2013-01-29 10:55:00
5:15 AM,59.0,57.2,94,30.09,7.0,South,12.7,-,N/A,,Overcast,180,2013-01-29 11:15:00
5:35 AM,59.0,59.0,100,30.09,7.0,South,12.7,-,N/A,,Overcast,190,2013-01-29 11:35:00
5:55 AM,59.0,59.0,100,30.08,7.0,South,11.5,-,N/A,,Overcast,180,2013-01-29 11:55:00
6:15 AM,59.0,59.0,100,30.09,10.0,South,12.7,-,N/A,,Overcast,190,2013-01-29 12:15:00
7:15 AM,59.0,59.0,100,30.12,5.0,SSW,11.5,-,N/A,,Overcast,200,2013-01-29 13:15:00
7:35 AM,59.0,59.0,100,30.12,5.0,South,9.2,-,N/A,,Overcast,190,2013-01-29 13:35:00
7:55 AM,59.0,59.0,100,30.11,5.0,South,5.8,-,N/A,,Overcast,180,2013-01-29 13:55:00
8:15 AM,59.0,59.0,100,30.11,7.0,South,5.8,-,N/A,,Overcast,170,2013-01-29 14:15:00
8:35 AM,59.0,59.0,100,30.10,10.0,SSE,6.9,-,N/A,,Overcast,160,2013-01-29 14:35:00
8:55 AM,60.8,59.0,94,30.10,10.0,South,5.8,-,N/A,,Overcast,190,2013-01-29 14:55:00
9:15 AM,62.6,60.8,94,30.10,10.0,South,10.4,-,N/A,,Overcast,190,2013-01-29 15:15:00
9:35 AM,62.6,60.8,94,30.09,10.0,South,9.2,-,N/A,,Overcast,170,2013-01-29 15:35:00
9:55 AM,62.6,60.8,94,30.08,10.0,South,8.1,-,N/A,,Overcast,180,2013-01-29 15:55:00
10:15 AM,64.4,60.8,88,30.08,10.0,South,12.7,16.1,N/A,,Overcast,190,2013-01-29 16:15:00
10:35 AM,64.4,60.8,88,30.07,10.0,South,9.2,-,N/A,,Overcast,180,2013-01-29 16:35:00
10:55 AM,64.4,60.8,88,30.07,10.0,South,8.1,-,N/A,,Overcast,180,2013-01-29 16:55:00
11:15 AM,64.4,62.6,94,30.05,10.0,South,11.5,-,N/A,,Overcast,180,2013-01-29 17:15:00
11:55 AM,66.2,62.6,88,30.02,10.0,South,8.1,-,N/A,,Overcast,180,2013-01-29 17:55:00
12:15 PM,68.0,62.6,83,30.01,10.0,South,10.4,-,N/A,,Overcast,180,2013-01-29 18:15:00
12:35 PM,68.0,60.8,78,29.99,10.0,South,10.4,-,N/A,,Overcast,190,2013-01-29 18:35:00
12:55 PM,68.0,60.8,78,29.98,10.0,SSW,15.0,19.6,N/A,,Overcast,200,2013-01-29 18:55:00
1:15 PM,68.0,60.8,78,29.95,10.0,South,9.2,19.6,N/A,,Overcast,180,2013-01-29 19:15:00
1:35 PM,68.0,60.8,78,29.95,10.0,SSW,13.8,-,N/A,,Overcast,200,2013-01-29 19:35:00
1:55 PM,68.0,60.8,78,29.94,10.0,South,11.5,18.4,N/A,,Overcast,190,2013-01-29 19:55:00
2:15 PM,68.0,60.8,78,29.92,10.0,South,13.8,18.4,N/A,,Overcast,180,2013-01-29 20:15:00
2:35 PM,69.8,60.8,73,29.90,10.0,South,15.0,20.7,N/A,,Overcast,180,2013-01-29 20:35:00
3:15 PM,69.8,60.8,73,29.89,10.0,South,21.9,27.6,N/A,,Overcast,180,2013-01-29 21:15:00
3:35 PM,69.8,60.8,73,29.88,10.0,South,16.1,24.2,N/A,,Mostly Cloudy,180,2013-01-29 21:35:00
3:55 PM,69.8,60.8,73,29.88,10.0,South,16.1,-,N/A,,Overcast,190,2013-01-29 21:55:00
4:15 PM,69.8,60.8,73,29.88,10.0,South,15.0,19.6,N/A,,Overcast,190,2013-01-29 22:15:00
4:35 PM,69.8,60.8,73,29.88,10.0,South,12.7,16.1,N/A,,Overcast,190,2013-01-29 22:35:00
4:55 PM,69.8,60.8,73,29.89,10.0,SSW,9.2,17.3,N/A,,Mostly Cloudy,200,2013-01-29 22:55:00
5:15 PM,69.8,60.8,73,29.88,10.0,South,10.4,18.4,N/A,,Overcast,180,2013-01-29 23:15:00
5:35 PM,68.0,60.8,78,29.88,10.0,South,12.7,-,N/A,,Overcast,170,2013-01-29 23:35:00
5:55 PM,68.0,60.8,78,29.87,10.0,South,11.5,17.3,N/A,,Overcast,170,2013-01-29 23:55:00
6:15 PM,68.0,60.8,78,29.86,10.0,South,12.7,19.6,N/A,,Overcast,170,2013-01-30 00:15:00
6:35 PM,68.0,60.8,78,29.86,10.0,SSE,15.0,-,N/A,,Scattered Clouds,160,2013-01-30 00:35:00
6:55 PM,68.0,60.8,78,29.86,10.0,South,12.7,23.0,N/A,,Scattered Clouds,170,2013-01-30 00:55:00
7:15 PM,68.0,60.8,78,29.86,10.0,South,10.4,-,N/A,,Scattered Clouds,180,2013-01-30 01:15:00
7:55 PM,68.0,60.8,78,29.83,10.0,SSE,15.0,23.0,N/A,,Scattered Clouds,160,2013-01-30 01:55:00
8:15 PM,66.2,60.8,83,29.82,10.0,SSE,12.7,21.9,N/A,,Scattered Clouds,160,2013-01-30 02:15:00
8:35 PM,68.0,60.8,78,29.81,10.0,SSE,15.0,21.9,N/A,,Scattered Clouds,160,2013-01-30 02:35:00
8:55 PM,68.0,60.8,78,29.80,10.0,South,16.1,-,N/A,,Mostly Cloudy,170,2013-01-30 02:55:00
9:15 PM,68.0,60.8,78,29.80,10.0,South,15.0,24.2,N/A,,Mostly Cloudy,180,2013-01-30 03:15:00
9:35 PM,68.0,62.6,83,29.80,10.0,South,17.3,-,N/A,,Overcast,180,2013-01-30 03:35:00
9:55 PM,69.8,62.6,78,29.80,10.0,South,18.4,28.8,N/A,,Overcast,180,2013-01-30 03:55:00
10:15 PM,69.8,60.8,73,29.78,10.0,South,17.3,25.3,N/A,,Overcast,180,2013-01-30 04:15:00
10:35 PM,69.8,60.8,73,29.76,10.0,South,20.7,28.8,N/A,,Overcast,180,2013-01-30 04:35:00
10:55 PM,68.0,62.6,83,29.75,10.0,South,18.4,23.0,N/A,,Overcast,170,2013-01-30 04:55:00
11:15 PM,69.8,60.8,73,29.73,10.0,South,19.6,33.4,N/A,,Overcast,180,2013-01-30 05:15:00
11:35 PM,69.8,60.8,73,29.72,10.0,South,20.7,29.9,N/A,,Overcast,190,2013-01-30 05:35:00
11:55 PM,69.8,60.8,73,29.72,10.0,SSW,21.9,29.9,N/A,,Overcast,200,2013-01-30 05:55:00